BAW96E EGLL-EDDH

Flight info

Callsign BAW96E
Flight time N/A
Altitude 37000
Route BPK6J BPK Q295 SOMVA MAVAS GASTU OSTOR T904 RIBSO RIBS7A
Aircraft A320/M-SDE3FGHIRWY/LB1

Departure

Time 2026-04-30 13:30
Airport London Heathrow Airport (EGLL)

Arrival

Time N/A
Airport Hamburg Helmut Schmidt Airport (EDDH)
Time Latitude Longitude Altitude Speed Heading
2026-04-30 13:04 51.47049 -0.48581 93 ft 0 kts 270°
2026-04-30 13:21 51.47049 -0.48562 93 ft 2 kts 270°
2026-04-30 13:21 51.47049 -0.48539 93 ft 2 kts 270°
2026-04-30 13:22 51.47049 -0.48498 93 ft 2 kts 251°
2026-04-30 13:22 51.47057 -0.48479 93 ft 2 kts 215°
2026-04-30 13:22 51.47076 -0.48472 93 ft 1 kts 179°
2026-04-30 13:23 51.47078 -0.48472 93 ft 0 kts 179°
2026-04-30 13:24 51.47077 -0.48472 93 ft 0 kts 180°
2026-04-30 13:25 51.47004 -0.48471 93 ft 7 kts 180°
2026-04-30 13:25 51.46874 -0.48470 93 ft 10 kts 180°
2026-04-30 13:26 51.46630 -0.48468 93 ft 4 kts 180°
2026-04-30 13:26 51.46598 -0.48468 93 ft 0 kts 179°
2026-04-30 13:28 51.46498 -0.48467 93 ft 5 kts 179°
2026-04-30 13:28 51.46478 -0.48451 93 ft 3 kts 92°
2026-04-30 13:28 51.46478 -0.48446 93 ft 0 kts 89°
2026-04-30 13:29 51.46478 -0.48381 93 ft 26 kts 90°
2026-04-30 13:29 51.46486 -0.46352 93 ft 147 kts 89°
2026-04-30 13:30 51.46787 -0.41015 1811 ft 164 kts 62°
2026-04-30 13:31 51.48352 -0.37960 2570 ft 196 kts 55°
2026-04-30 13:31 51.51344 -0.32334 3962 ft 242 kts 56°
2026-04-30 13:32 51.53648 -0.28052 5192 ft 266 kts 46°